Regional Weather Roundup
Issued by NWS New Orleans/Baton Rouge, LA

Home | Current Version | Previous Version | Graphics & Text | Print | Product List | Glossary On
Versions: 1 2 3 4 5 6 7 8 9 10 11 12 13 14 15 16 17 18 19 20 21 22 23 24 25 26 27 28 29 30 31 32 33 34 35 36 37 38 39 40 41 42 43 44 45 46 47 48 49 50
672
ASUS44 KLIX 231401
RWRLIX
NEW ORLEANS REGIONAL WEATHER ROUNDUP
NATIONAL WEATHER SERVICE NEW ORLEANS LA
900 AM CDT SAT AUG 23 2014

NOTE: "FAIR" INDICATES FEW OR NO CLOUDS BELOW 12,000 FEET WITH NO
      SIGNIFICANT WEATHER AND/OR OBSTRUCTIONS TO VISIBILITY.
      SKY/WX - SKY CONDITION AND SIGNIFICANT WEATHER.
      TMP - AIR TEMPERATURE.     DP    - DEWPOINT TEMPERATURE.
      RH  - RELATIVE HUMIDITY.   PRES  - PRESSURE.
      HI  - HEAT INDEX.          WCI   - WIND CHILL INDEX.

*  THESE STATIONS ARE NOT NWS OR FAA STATIONS AND ARE NOT UNDER
   NWS QUALITY CONTROL.

LAZ038-040-048-061>063-065>067-069-231500-
SOUTHEAST LOUISIANA

CITY           SKY/WX    TMP DP  RH WIND       PRES   REMARKS
N.O. AUDUBON     N/A     88  78  73 MISG        N/A  HX 102
N.O. INTL ARPT MOSUNNY   86  76  71 N9        30.04S HX  96
N.O. LAKEFRONT SUNNY     86  77  74 N10       30.04S HX  97
N.O. DOWNTOWN*   N/A     86  73  66 N5        30.05R
SLIDELL        SUNNY     85  75  72 N6        30.03S
BATON ROUGE    SUNNY     84  76  76 N6        30.05R
BOOTHVILLE     SUNNY     86  78  77 NW9       30.04S HX  98
BELLE CHASSE   MOSUNNY   87  75  67 NW7       30.03S HX  96
BOGALUSA*        N/A     84  74  72 N5        30.06R
GALLIANO*      NOT AVBL
NEW ROADS*       N/A     82  77  83 NW3       30.05S
GONZALES*        N/A     84  80  87 NW6       30.04S HX  96
HAMMOND*       NOT AVBL
HOUMA*         SUNNY     84  75  74 N9        30.04S
PORT FOURCHON* SUNNY     88  77  70 N9        30.06R HX 100

$$

MSZ070-080>082-231500-
SOUTHERN MISSISSIPPI

CITY           SKY/WX    TMP DP  RH WIND       PRES   REMARKS
MCCOMB         SUNNY     85  74  69 NW8       30.06S
GULFPORT       SUNNY     86  75  69 N6        30.02S HX  95
BILOXI         SUNNY     87  76  69 VRB3      30.03S HX  97
PASCAGOULA     SUNNY     86  76  71 N6        30.02F HX  96

$$

COASTAL OBSERVATIONS
LAKE AND NEARSHORE STATIONS

STATION/POSITION TIME  TEMP    WIND        PRES    WAVE
                       AIR SEA DIR/SP/G            HT/PER
                 (UTC) (F)     (DEG/KT/KT) (MB)    (FT/S)
PASCAGOULA       1300   86     330/  5/  8 1016.0
WAVELAND YACHT   1300   83     350/  6/  7 1016.3
GRAND ISLE       1300   86 89  350/  7/ 11 1017.8
SOUTHWEST PASS   1300   88 87   20/  8/  9 1017.3
NEW CANAL        1300   84 84  340/  6/ 10 1017.7
SHELL BEACH      1300   84 82  330/ 10/ 11 1016.8

OFFSHORE STATIONS

STATION/POSITION TIME  TEMP    WIND        PRES    WAVE
                       AIR SEA DIR/SP/G            HT/PER
                 (UTC) (F)     (DEG/KT/KT) (MB)    (FT/S)
64 S DAUPHIN ISL 1310   86 88  330/ 10/ 12 1016.9

$$




USA.gov is the U.S. government's official web portal to all federal, state and local government web resources and services.